Temp
46 46 46 46 46 47 48 48 48 48 48 49 49 49 49 49 50 46 43 49 46 42 44 49 49 49 50 50 44 46 49 45 39 37 35 34 31 38 36 41 38 37 31 26 27 24 30 49 49 44 45 45 48 48
47 47 47 47 47 47 47 47 47 48 48 48 48 48 49 49 50 48 41 49 51 44 44 50 50 51 50 55 53 46 49 48 47 42 38 35 34 30 35 31 43 38 40 35 38 37 46 46 49 48 48 48 47 48
47 47 47 47 47 47 48 48 48 48 48 48 48 49 49 49 50 48 44 48 47 42 43 44 45 53 55 54 56 48 46 53 50 50 43 39 37 35 32 32 37 43 46 40 41 43 43 44 45 46 47 46 46 47
47 47 47 47 47 47 47 47 47 47 48 48 48 48 49 49 49 49 45 49 48 45 37 44 56 51 57 57 56 57 56 53 50 48 40 36 35 44 33 41 39 43 46 41 38 41 44 44 43 43 43 43 42 42
47 47 47 47 46 46 47 46 46 47 48 48 48 48 49 49 50 49 48 48 50 44 39 42 49 55 55 54 55 59 55 51 45 41 33 37 41 42 38 39 37 45 44 39 36 45 44 42 43 44 42 40 41 40
47 47 47 47 47 47 47 47 47 46 46 47 48 49 49 49 49 47 41 47 50 50 42 36 46 51 53 53 55 55 54 49 47 44 38 43 47 44 36 32 45 46 47 48 47 49 43 42 41 42 40 39 39 38
46 47 47 47 47 46 46 47 48 48 47 48 48 49 48 49 47 42 40 44 50 51 42 36 37 48 52 49 48 49 50 47 49 46 40 42 42 42 33 32 44 44 44 43 44 43 38 39 36 39 39 38 39 37
46 47 47 47 46 46 46 47 47 48 48 48 48 49 49 49 48 42 49 49 51 48 46 35 36 40 50 44 41 47 43 46 45 42 39 37 40 35 37 40 40 43 43 43 41 43 41 39 38 37 38 37 35 33
46 46 46 46 46 46 46 47 47 48 48 48 48 48 47 45 39 43 49 50 52 48 39 34 35 34 45 40 41 40 43 37 43 37 37 40 34 35 40 40 40 42 41 38 39 39 38 36 35 36 36 34 32 30
46 46 46 46 46 46 46 46 47 47 48 48 47 44 37 44 50 50 48 43 44 44 43 35 41 37 44 36 36 37 36 35 35 37 39 35 34 37 37 39 40 40 40 40 35 33 34 35 34 35 34 35 33 31
46 46 46 46 46 46 46 46 47 48 48 45 41 39 48 50 47 42 35 35 37 34 37 38 40 39 42 36 34 35 34 33 33 36 36 33 33 35 38 38 40 41 42 41 42 40 40 39 36 35 33 32 31 31
46 46 46 46 46 46 46 46 47 46 47 46 48 48 46 44 38 33 32 33 33 33 35 35 37 41 37 41 35 35 33 33 31 37 34 31 34 36 39 39 40 42 42 41 42 40 40 39 37 34 32 31 31 31
46 46 46 46 46 47 46 47 47 48 48 47 42 37 39 33 31 31 29 31 31 33 34 34 34 34 36 38 32 30 29 30 34 33 32 31 35 38 39 40 40 42 41 40 39 38 37 35 33 32 30 31 29 29
47 47 47 47 46 47 47 47 47 47 44 37 32 29 30 28 29 29 31 31 32 32 33 34 33 34 33 33 32 27 32 32 28 26 28 32 35 37 38 38 37 36 35 35 34 33 32 31 29 29 29 29 28 28
46 46 47 47 47 47 47 47 47 44 38 32 33 27 28 31 32 32 32 33 33 34 33 34 34 36 33 32 32 32 31 28 27 21 30 33 35 36 35 34 33 32 32 32 33 31 30 29 29 29 29 29 27 24
47 47 44 46 46 46 46 46 43 40 33 31 31 30 31 31 31 32 32 32 35 33 33 33 30 27 31 31 30 28 29 25 27 30 32 34 33 34 34 34 34 33 32 31 31 31 30 29 28 28 28 26 23 21
46 42 45 47 47 47 46 41 37 33 32 30 29 32 31 31 30 31 32 32 35 33 32 28 30 28 32 27 26 28 24 27 30 32 33 34 33 32 33 32 32 32 31 31 31 30 29 30 28 27 25 26 27 24
39 42 46 47 48 46 42 39 34 33 30 31 29 30 30 29 29 29 31 33 33 32 31 28 31 23 19 19 20 24 26 31 32 32 32 33 33 33 34 33 33 33 32 31 30 30 30 28 28 27 27 27 25 24
41 43 45 46 46 40 35 35 36 29 30 31 32 32 31 29 29 30 31 32 33 33 31 28 22 20 20 23 22 24 25 28 30 31 32 32 33 33 33 33 32 31 30 29 30 28 28 27 26 26 24 24 21 21
44 44 43 44 45 35 32 32 37 32 30 31 32 30 30 29 29 28 28 30 31 29 24 21 20 21 21 23 24 25 25 27 31 30 29 28 30 30 29 29 28 27 26 25 24 24 24 23 23 22 21 20 18 17
39 39 40 38 34 34 31 30 31 33 31 30 30 29 27 28 26 24 24 28 25 23 21 23 22 23 26 25 25 26 25 24 22 25 27 24 25 25 25 25 25 24 22 21 20 19 19 19 19 19 17 14 14 15
34 40 28 32 29 30 29 30 29 28 29 28 27 28 24 21 18 22 26 21 20 21 23 22 22 23 22 22 22 23 25 24 23 22 22 22 20 20 20 21 21 19 19 18 18 17 17 18 18 17 14 13 15 14
37 33 28 28 23 22 19 28 22 27 19 20 23 21 20 18 23 26 17 22 21 23 25 23 23 24 22 23 23 23 23 23 21 20 19 18 18 18 17 17 19 17 16 17 18 17 15 16 14 12 12 11 10 6
35 22 18 17 21 12 16 19 25 24 20 17 17 20 22 21 21 15 13 15 19 21 21 21 22 20 20 19 17 17 19 21 18 18 19 17 15 14 15 14 14 14 14 14 12 10 9 8 8 7 4 -0 -2 -3
22 19 17 13 16 15 10 9 12 16 9 10 11 18 22 18 10 8 9 13 14 14 15 18 17 17 14 14 15 16 19 17 14 13 14 18 15 14 13 12 11 12 12 8 4 3 3 1 -2 -4 -3 -10 -2 -6
16 21 20 19 17 15 11 12 10 13 10 12 15 19 15 6 3 4 14 12 11 13 11 13 12 14 14 15 13 13 13 16 15 11 11 13 12 9 7 5 5 7 6 -2 -6 -9 -8 -9 -12 -9 -12 -8 -6 -11
11 11 24 28 22 21 13 12 16 12 14 15 17 4 5 -2 -0 12 18 18 15 16 18 17 17 14 13 13 14 13 13 14 13 12 12 11 9 8 3 -3 -2 4 5 -2 -8 -8 -6 -8 -11 -10 -11 -17 -16 -15
18 18 11 12 13 16 5 4 7 12 10 18 13 1 -3 -3 4 14 15 19 18 18 17 15 14 12 9 8 8 8 10 10 9 8 6 7 6 5 3 6 7 9 3 -0 -3 -7 -12 -6 -5 -6 -10 -11 -8 -14
23 19 16 8 9 12 16 10 10 20 22 15 3 4 5 11 10 11 15 17 16 14 11 8 7 7 7 5 4 2 3 -1 -3 -8 -12 -14 -12 -5 -4 -7 -7 -7 -6 -4 -0 6 7 2 -3 -10 -10 -12 -8 -9
12 13 8 -0 6 12 14 12 6 7 15 10 12 12 11 8 11 14 13 12 9 6 3 1 -1 1 -6 -6 -6 -1 -2 -8 -7 -8 -12 -11 -8 -6 -15 -15 -15 -13 -13 -13 -11 -9 -2 -9 -7 -11 -13 -12 -15 -18
11 9 7 7 11 12 12 7 9 7 2 0 -2 -1 1 6 6 10 10 7 6 3 2 -3 -7 -13 -9 -10 -13 -13 -10 -3 -5 -4 -5 -8 -9 -10 -9 -11 -17 -18 -19 -20 -21 -19 -16 -17 -18 -17 -14 -12 -10 -11
5 -0 5 6 10 13 18 13 11 4 3 1 -1 -7 -1 -5 -5 3 5 1 -1 -5 -4 -9 -8 -4 -7 -10 -13 -11 -6 -8 -10 -12 -11 -13 -11 -12 -13 -13 -17 -18 -18 -19 -21 -20 -19 -19 -19 -21 -21 -18 -14 -12
1 -3 -3 1 7 7 4 5 11 6 4 1 -0 -1 -3 -4 -6 -0 4 -2 -4 -8 -9 -11 -12 -10 -4 -6 -8 -12 -10 -14 -15 -5 -4 -2 -5 -8 -14 -17 -19 -19 -17 -19 -20 -19 -19 -19 -21 -23 -18 -14 -12 -11
MSLP
985.33 986.05 987.08 988.35 989.81 991.25 992.57 993.89 995.25 996.58 997.77 998.90 1000.04 1001.07 1002.20 1003.35 1004.02 1005.52 1006.31 1006.48 1006.18 1006.32 1005.14 1004.56 1004.13 1003.79 1003.90 1003.96 1004.27 1005.09 1006.10 1006.45 1007.79 1008.45 1009.73 1009.72 1009.96 1009.66 1009.85 1010.20 1010.56 1011.59 1013.28 1014.28 1014.31 1013.71 1011.86 1009.51 1009.78 1009.81 1009.54 1009.97 1010.47 1011.41
988.11 988.55 989.26 990.16 991.19 992.33 993.54 994.72 995.86 996.93 997.95 998.97 999.95 1000.95 1002.15 1003.11 1003.82 1005.42 1006.32 1006.60 1006.06 1006.08 1005.60 1005.21 1004.39 1003.88 1003.71 1003.08 1003.87 1004.25 1003.92 1004.36 1005.39 1006.81 1008.66 1009.37 1009.86 1010.11 1009.79 1010.57 1010.19 1010.70 1010.33 1011.27 1011.84 1011.11 1010.07 1009.68 1009.62 1009.20 1009.43 1010.10 1011.22 1011.82
989.69 990.10 990.73 991.56 992.48 993.39 994.32 995.20 996.09 997.00 997.92 998.82 999.70 1000.78 1001.77 1002.72 1003.84 1005.18 1006.25 1005.71 1005.79 1006.25 1005.85 1005.27 1003.73 1002.66 1002.57 1002.62 1002.59 1003.21 1003.53 1003.36 1003.98 1004.77 1007.05 1008.51 1008.62 1009.36 1009.84 1009.46 1009.43 1009.40 1009.27 1009.76 1010.86 1010.59 1010.36 1010.28 1010.17 1009.96 1010.22 1010.91 1011.68 1012.33
991.08 991.50 992.08 992.77 993.49 994.23 994.89 995.52 996.11 996.79 997.62 998.47 999.45 1000.56 1001.78 1003.00 1004.15 1005.28 1006.12 1005.40 1006.15 1006.35 1006.61 1004.01 1002.53 1002.02 1001.67 1001.55 1001.70 1001.96 1002.12 1003.10 1004.16 1005.13 1006.88 1007.87 1008.29 1008.23 1008.71 1007.87 1008.18 1007.94 1008.50 1009.46 1010.48 1010.72 1011.01 1011.03 1011.06 1011.20 1011.80 1012.29 1012.82 1013.62
992.20 992.63 993.09 993.65 994.23 994.71 995.21 995.73 995.97 996.36 997.07 998.18 999.36 1000.46 1001.68 1002.88 1003.97 1005.26 1005.46 1005.37 1005.54 1006.29 1005.20 1004.02 1002.87 1001.87 1001.52 1000.82 1000.86 1001.39 1001.92 1002.72 1004.28 1005.87 1006.57 1007.31 1007.06 1007.39 1008.45 1008.39 1007.67 1006.93 1007.25 1008.36 1008.86 1008.73 1009.47 1010.68 1011.67 1012.11 1012.53 1013.43 1014.07 1014.47
992.99 993.37 993.89 994.42 994.89 995.26 995.68 996.06 996.43 996.89 997.49 997.91 999.15 1000.49 1001.78 1002.84 1003.77 1004.58 1005.35 1005.18 1005.88 1006.04 1006.25 1005.18 1003.76 1001.50 1000.80 1000.68 1000.51 1001.01 1001.65 1002.76 1003.71 1004.55 1005.98 1006.27 1006.24 1006.49 1008.30 1008.71 1006.85 1006.33 1006.40 1006.49 1007.31 1008.47 1009.68 1011.01 1012.25 1012.93 1013.58 1014.47 1015.13 1015.67
993.67 994.11 994.59 995.13 995.61 996.05 996.45 996.75 997.00 997.60 998.18 998.76 999.23 1000.29 1001.55 1002.56 1003.61 1004.40 1004.38 1004.37 1005.19 1005.82 1006.17 1005.45 1003.28 1001.97 1001.50 1001.39 1001.53 1002.00 1002.51 1003.54 1004.08 1005.01 1005.92 1006.62 1006.71 1006.73 1008.24 1008.44 1006.92 1006.86 1006.95 1007.36 1008.05 1008.88 1011.63 1012.24 1013.23 1013.96 1014.53 1015.37 1016.08 1016.84
994.18 994.65 995.19 995.78 996.36 996.82 997.25 997.57 997.95 998.56 999.16 999.89 1000.53 1001.54 1002.59 1003.73 1004.53 1004.41 1003.45 1003.46 1003.90 1005.43 1006.07 1005.47 1004.13 1003.19 1002.32 1002.58 1003.15 1003.21 1003.72 1004.06 1004.78 1006.00 1006.51 1006.69 1006.90 1007.14 1008.11 1008.35 1008.27 1007.80 1008.01 1008.66 1009.17 1008.99 1010.20 1012.23 1013.78 1014.91 1015.59 1016.14 1016.96 1017.88
994.61 995.20 995.75 996.35 997.01 997.60 998.01 998.37 998.85 999.38 1000.08 1000.81 1001.54 1002.38 1003.44 1003.90 1003.98 1003.55 1003.36 1003.98 1003.88 1004.71 1005.48 1005.63 1005.13 1004.29 1003.55 1004.11 1004.20 1004.64 1004.44 1005.43 1006.38 1006.11 1006.61 1006.77 1008.33 1008.15 1008.09 1007.96 1008.55 1008.69 1008.49 1009.74 1010.55 1011.13 1012.03 1012.88 1014.27 1015.42 1016.23 1017.12 1017.66 1018.82
994.89 995.69 996.31 996.97 997.60 998.10 998.56 999.01 999.58 1000.16 1000.78 1001.49 1002.16 1002.32 1002.93 1002.66 1002.38 1002.85 1003.44 1003.94 1004.43 1004.28 1004.64 1004.85 1004.56 1004.26 1004.01 1004.97 1005.31 1003.87 1005.17 1006.20 1006.50 1006.16 1006.26 1007.00 1008.43 1008.72 1008.52 1008.11 1009.29 1009.49 1009.51 1010.21 1011.24 1012.71 1013.35 1014.20 1014.92 1015.85 1016.89 1017.67 1018.40 1019.23
995.26 995.93 996.66 997.44 998.02 998.43 998.84 999.31 999.92 1000.68 1001.33 1001.44 1001.43 1001.40 1001.32 1001.51 1002.72 1004.20 1005.06 1005.12 1004.85 1004.91 1004.69 1004.23 1003.85 1004.11 1004.57 1004.58 1004.52 1005.00 1005.79 1006.03 1006.55 1006.63 1006.34 1007.83 1008.51 1008.24 1009.20 1009.45 1009.49 1010.04 1010.19 1010.52 1010.97 1012.22 1013.18 1013.76 1014.84 1016.16 1017.42 1018.43 1019.25 1019.97
994.95 995.67 996.81 997.60 998.06 998.21 998.31 999.12 999.55 1000.23 999.96 1000.06 999.52 1000.41 1001.18 1002.18 1003.61 1004.91 1005.04 1005.17 1005.15 1005.17 1004.84 1004.61 1004.37 1004.37 1004.71 1004.52 1004.28 1004.85 1005.49 1005.85 1006.23 1006.13 1006.82 1007.86 1008.34 1008.80 1009.65 1010.01 1010.06 1010.43 1010.82 1011.29 1011.89 1012.72 1013.67 1014.61 1015.66 1016.83 1018.04 1019.10 1019.94 1020.67
994.83 995.84 996.48 997.03 996.94 997.95 999.49 999.66 1000.21 999.91 999.94 1000.07 999.98 1001.54 1002.42 1004.25 1005.05 1005.27 1005.25 1005.44 1005.63 1005.33 1005.02 1004.77 1005.05 1005.20 1005.02 1004.67 1005.50 1005.85 1006.69 1007.11 1006.78 1007.32 1008.07 1008.87 1009.09 1009.47 1009.95 1010.44 1011.16 1011.38 1011.68 1012.26 1013.35 1014.16 1014.94 1015.88 1016.89 1017.69 1018.95 1019.92 1020.62 1021.32
995.23 995.96 996.86 997.44 998.07 999.25 999.84 999.90 1000.18 1000.46 1000.60 1001.36 1003.02 1004.49 1005.33 1006.06 1006.27 1006.27 1005.94 1005.68 1006.00 1006.04 1005.71 1005.64 1005.92 1006.19 1006.27 1006.34 1006.78 1007.10 1007.62 1007.41 1008.32 1009.06 1009.56 1009.84 1009.99 1010.33 1010.87 1011.54 1011.85 1012.60 1013.05 1013.67 1014.61 1015.49 1016.19 1016.91 1018.08 1019.08 1019.67 1020.46 1021.10 1021.87
996.27 996.71 997.29 998.10 998.42 999.12 999.63 999.89 1000.95 1001.15 1002.34 1003.65 1004.50 1006.07 1006.87 1007.11 1007.16 1007.17 1006.96 1006.90 1006.79 1006.31 1006.12 1006.34 1006.70 1006.90 1007.21 1007.46 1007.88 1008.28 1008.53 1008.98 1009.66 1010.19 1010.56 1010.80 1011.13 1011.53 1012.13 1012.72 1012.90 1013.59 1014.37 1015.13 1015.87 1016.48 1017.34 1018.22 1019.02 1020.00 1020.65 1021.19 1021.87 1022.63
996.65 996.79 998.74 998.67 998.97 999.73 1000.37 1000.81 1001.36 1002.48 1004.06 1005.38 1006.98 1007.52 1007.88 1007.88 1008.01 1007.83 1007.89 1007.83 1007.50 1007.25 1007.18 1007.24 1007.69 1008.09 1008.69 1009.02 1009.51 1010.12 1010.06 1011.02 1011.58 1011.76 1011.73 1011.88 1012.17 1012.46 1012.88 1013.43 1014.10 1014.82 1015.55 1016.25 1016.95 1017.60 1018.32 1019.02 1019.78 1020.59 1021.45 1022.21 1022.87 1023.44
997.51 999.15 999.69 999.33 999.21 999.23 999.90 1000.57 1001.91 1004.36 1006.36 1007.81 1009.24 1009.17 1009.13 1009.33 1009.51 1009.47 1009.11 1008.71 1008.28 1008.10 1008.54 1008.72 1009.45 1010.33 1010.10 1011.00 1012.26 1012.71 1013.22 1013.28 1013.13 1012.80 1012.67 1012.88 1013.07 1013.40 1013.82 1014.47 1015.20 1015.90 1016.65 1017.33 1017.92 1018.52 1019.16 1019.84 1020.61 1021.38 1022.15 1022.95 1023.43 1024.17
999.39 999.51 998.79 998.61 998.69 998.99 1000.27 1001.87 1004.20 1006.84 1008.94 1009.95 1010.23 1010.58 1010.74 1011.05 1010.76 1010.50 1010.08 1009.54 1008.74 1009.31 1010.08 1011.28 1011.84 1012.82 1014.15 1015.02 1015.68 1015.87 1015.45 1014.62 1014.14 1013.70 1013.66 1013.87 1014.08 1014.51 1014.87 1015.45 1016.24 1016.91 1017.58 1018.24 1018.84 1019.47 1020.08 1020.78 1021.44 1022.12 1022.70 1023.35 1024.15 1024.89
1000.16 999.62 998.89 998.48 998.55 1000.31 1003.77 1005.65 1006.55 1009.40 1010.96 1011.06 1011.34 1011.40 1011.77 1012.35 1012.55 1012.22 1011.43 1010.89 1010.69 1010.73 1011.64 1013.59 1015.26 1016.65 1017.69 1018.12 1018.03 1017.41 1016.72 1015.81 1014.99 1014.82 1014.92 1015.17 1015.37 1015.60 1015.97 1016.53 1017.16 1017.84 1018.46 1019.16 1019.83 1020.56 1021.28 1021.84 1022.47 1022.99 1023.68 1024.28 1024.91 1025.55
999.56 999.54 999.44 999.10 998.88 1002.33 1005.92 1008.06 1008.47 1010.36 1011.87 1012.61 1013.20 1013.38 1013.59 1014.29 1014.27 1013.86 1013.23 1012.76 1012.59 1013.11 1015.28 1017.58 1019.16 1019.95 1019.98 1019.93 1019.46 1018.67 1017.96 1017.00 1016.22 1016.30 1016.72 1017.05 1017.20 1017.26 1017.68 1018.06 1018.72 1019.35 1019.99 1020.73 1021.49 1022.09 1022.74 1023.42 1024.04 1024.62 1025.15 1025.61 1025.96 1026.39
1000.47 1000.96 1000.59 1000.59 1002.35 1004.66 1008.11 1009.69 1010.76 1011.84 1012.67 1013.32 1013.75 1014.19 1014.96 1015.24 1015.35 1015.47 1015.47 1015.48 1015.22 1017.54 1019.43 1020.77 1021.11 1021.29 1021.20 1020.94 1020.53 1019.94 1019.44 1018.91 1018.77 1018.52 1018.71 1019.23 1019.55 1019.56 1019.89 1020.28 1020.67 1021.16 1021.71 1022.46 1023.10 1023.93 1024.41 1025.03 1025.60 1026.04 1026.37 1026.69 1026.82 1027.06
1002.34 1002.03 1002.72 1003.22 1005.82 1007.96 1010.13 1011.25 1011.77 1012.53 1013.03 1013.94 1014.29 1014.70 1015.62 1016.27 1016.89 1017.47 1018.24 1018.55 1020.61 1022.00 1022.32 1022.54 1022.57 1022.45 1022.32 1022.13 1022.00 1021.57 1021.27 1020.92 1020.81 1020.77 1020.93 1021.11 1021.54 1021.93 1022.32 1022.63 1022.73 1023.36 1023.96 1024.58 1025.08 1025.62 1026.15 1026.51 1026.79 1027.14 1027.44 1027.63 1027.58 1027.80
1003.03 1003.31 1005.29 1007.22 1009.35 1011.41 1013.32 1012.69 1013.55 1014.11 1014.65 1015.40 1015.59 1016.41 1017.12 1017.66 1018.37 1018.67 1020.84 1022.61 1023.72 1024.16 1023.82 1023.88 1023.97 1023.94 1023.88 1023.88 1023.54 1023.25 1023.14 1022.93 1022.93 1023.19 1023.43 1023.68 1024.01 1024.36 1024.57 1024.81 1025.04 1025.40 1025.92 1026.50 1026.89 1027.27 1027.58 1027.94 1028.20 1028.40 1028.55 1028.59 1028.66 1028.83
1004.46 1007.37 1009.90 1011.72 1012.88 1015.21 1015.05 1015.57 1015.44 1016.01 1016.69 1017.31 1017.78 1018.31 1018.65 1019.15 1019.86 1021.51 1023.71 1025.18 1025.86 1025.70 1025.33 1025.26 1025.07 1025.09 1025.27 1025.23 1025.25 1025.38 1025.29 1025.07 1025.10 1025.22 1025.45 1025.58 1025.89 1026.52 1026.81 1027.12 1027.41 1027.71 1028.05 1028.39 1028.72 1029.03 1029.24 1029.42 1029.51 1029.66 1029.77 1029.80 1029.85 1029.98
1008.38 1012.74 1013.57 1015.34 1015.43 1016.52 1017.54 1017.92 1018.07 1018.08 1019.17 1019.40 1019.64 1019.86 1020.09 1020.26 1022.23 1024.13 1025.51 1026.61 1026.95 1026.89 1026.84 1026.73 1026.67 1026.68 1026.79 1027.02 1027.09 1027.07 1026.96 1026.80 1026.86 1027.04 1027.48 1027.41 1027.70 1028.06 1028.49 1028.91 1029.22 1029.48 1029.62 1029.76 1030.22 1030.50 1030.69 1030.70 1030.74 1030.80 1030.83 1030.74 1030.69 1030.64
1013.20 1015.47 1015.86 1016.67 1017.43 1017.96 1018.95 1019.74 1019.85 1020.22 1020.51 1020.82 1021.28 1021.31 1021.64 1023.20 1024.88 1026.26 1026.83 1027.53 1027.83 1027.93 1027.96 1027.85 1027.82 1028.03 1028.25 1028.46 1028.54 1028.51 1028.53 1028.26 1028.31 1028.53 1029.36 1029.32 1029.39 1029.59 1030.03 1030.22 1030.33 1030.59 1030.69 1030.78 1031.25 1031.50 1031.46 1031.49 1031.44 1031.45 1031.43 1031.40 1031.31 1031.19
1016.53 1017.27 1017.35 1017.64 1018.03 1018.72 1020.02 1020.56 1020.86 1021.43 1022.14 1022.57 1022.90 1023.60 1024.30 1026.17 1027.31 1027.70 1027.87 1028.15 1028.48 1028.75 1028.78 1028.88 1028.98 1029.34 1029.70 1029.88 1029.91 1029.92 1029.76 1029.56 1029.64 1030.26 1030.76 1030.90 1031.02 1031.12 1031.24 1031.31 1031.13 1031.26 1031.14 1031.22 1031.36 1031.68 1031.79 1031.70 1031.69 1031.82 1031.86 1031.67 1031.55 1031.45
1017.85 1018.62 1019.49 1020.01 1020.15 1020.45 1021.66 1022.49 1023.13 1023.37 1023.50 1023.61 1024.21 1026.32 1027.35 1028.51 1029.33 1029.20 1029.14 1029.07 1029.25 1029.57 1029.96 1030.23 1030.54 1030.80 1031.11 1031.30 1031.25 1031.06 1030.97 1030.98 1031.10 1031.28 1031.47 1031.83 1032.15 1032.19 1032.19 1032.02 1031.82 1031.47 1031.75 1031.81 1031.72 1031.23 1031.12 1031.17 1031.30 1031.56 1031.71 1031.62 1031.36 1030.72
1019.57 1020.30 1020.80 1021.92 1022.12 1022.54 1023.20 1023.78 1024.31 1024.45 1024.44 1024.81 1026.55 1028.19 1029.23 1030.17 1030.67 1030.37 1030.15 1030.07 1030.13 1030.49 1031.07 1031.57 1031.99 1032.06 1032.20 1032.26 1032.30 1032.32 1032.18 1032.23 1032.35 1033.10 1033.20 1033.62 1033.52 1033.31 1033.09 1033.04 1033.08 1032.91 1032.57 1032.28 1031.68 1030.83 1030.25 1030.07 1030.20 1030.68 1031.03 1031.24 1030.85 1030.61
1021.60 1021.74 1022.90 1023.62 1024.18 1024.61 1024.70 1024.76 1025.44 1026.05 1025.95 1026.77 1027.98 1029.57 1030.62 1031.42 1031.55 1031.24 1031.14 1031.28 1031.61 1032.21 1032.63 1032.83 1033.05 1033.06 1033.63 1033.76 1033.99 1033.71 1033.61 1033.48 1033.60 1034.14 1034.21 1034.34 1034.12 1033.78 1033.57 1033.65 1033.71 1033.73 1033.28 1033.07 1032.36 1031.68 1031.18 1031.00 1030.66 1030.78 1031.31 1031.16 1031.10 1030.96
1022.91 1023.31 1024.41 1025.20 1025.40 1025.31 1025.41 1025.59 1025.93 1026.55 1027.61 1028.80 1029.53 1030.65 1031.70 1032.21 1032.42 1032.50 1032.53 1032.81 1033.06 1033.30 1033.57 1034.12 1034.11 1034.23 1034.29 1034.53 1034.90 1034.66 1034.68 1034.48 1034.28 1034.24 1034.23 1034.19 1034.03 1033.87 1033.75 1033.84 1034.01 1033.93 1033.85 1033.58 1032.95 1032.62 1032.39 1032.37 1032.48 1032.24 1032.03 1031.72 1031.34 1031.08
1024.87 1025.90 1025.99 1026.85 1026.56 1026.02 1025.76 1026.06 1026.86 1027.96 1029.27 1030.29 1031.52 1031.82 1032.61 1033.13 1033.50 1033.48 1033.61 1033.79 1034.04 1034.65 1034.79 1034.90 1034.94 1034.84 1034.72 1034.75 1034.76 1034.79 1034.89 1034.86 1034.69 1034.46 1034.30 1034.34 1034.16 1033.85 1033.76 1033.54 1033.61 1033.67 1033.81 1033.57 1033.34 1033.16 1032.99 1033.33 1033.12 1032.81 1032.50 1032.11 1031.72 1031.38
1026.55 1026.65 1026.91 1027.40 1027.52 1027.41 1027.41 1027.32 1027.93 1029.29 1030.12 1031.15 1032.01 1032.64 1033.29 1033.69 1034.10 1034.23 1034.06 1034.32 1034.78 1035.05 1035.37 1035.46 1034.97 1034.75 1034.69 1034.74 1034.78 1035.03 1034.71 1034.87 1034.68 1034.04 1033.67 1033.39 1033.36 1033.46 1033.60 1033.63 1033.63 1033.57 1033.61 1033.44 1033.36 1033.27 1033.32 1033.56 1033.42 1033.19 1032.89 1032.52 1032.10 1031.71
Wind_Speed
31 31 30 30 29 29 29 29 29 29 28 27 28 28 25 27 27 11 7 7 2 1 4 6 5 7 7 13 12 4 7 2 3 4 5 5 4 6 5 5 8 8 8 4 4 4 7 4 5 9 8 3 7 5
24 25 25 25 25 24 24 24 25 25 25 26 26 26 26 25 24 18 4 10 4 1 4 5 11 17 7 6 11 5 4 8 7 5 2 3 3 2 5 4 2 3 9 9 10 9 4 2 5 1 4 8 5 7
21 22 22 22 22 21 21 21 22 24 25 26 25 23 22 21 23 17 7 5 3 3 6 4 7 8 7 10 7 7 3 1 3 4 5 2 4 5 5 6 4 3 4 5 5 2 1 1 2 4 4 5 6 6
19 21 21 22 20 18 19 16 18 23 26 24 24 23 25 24 25 20 9 3 5 1 3 7 3 6 5 7 9 7 7 6 5 3 3 4 3 3 4 5 6 6 8 7 2 1 3 4 3 7 11 11 13 12
17 17 18 18 17 15 19 16 13 17 25 28 24 23 24 26 23 13 3 2 4 3 3 4 8 8 8 7 11 12 6 7 4 3 3 3 3 4 3 2 2 6 9 8 8 12 6 5 7 8 12 10 11 15
15 17 18 17 17 15 15 14 17 16 16 25 27 29 26 26 19 5 2 2 5 3 2 4 5 6 8 3 10 8 6 4 3 5 3 0 3 4 5 4 3 2 1 3 6 12 7 13 8 7 12 10 11 13
16 15 16 16 17 17 16 16 18 21 23 20 21 28 27 23 7 4 4 4 14 3 2 5 5 3 4 1 2 4 4 3 2 2 3 3 3 4 5 3 3 4 7 13 17 18 10 3 7 11 14 14 15 13
16 16 17 17 19 17 16 19 21 21 23 24 21 22 23 17 4 4 1 18 11 6 1 4 5 5 6 3 2 2 3 2 5 2 1 3 3 3 1 2 1 9 13 10 6 7 13 18 15 14 14 15 16 13
17 18 18 19 19 19 17 18 17 17 19 20 21 20 6 2 3 4 11 8 3 3 5 3 3 4 3 3 3 1 2 3 1 2 2 3 2 3 1 6 5 9 4 13 14 17 17 18 16 15 14 13 15 10
20 19 19 19 19 19 18 16 15 15 16 19 7 3 4 6 12 7 5 5 1 2 0 3 2 1 3 3 3 3 3 2 4 4 2 3 4 3 5 1 7 10 16 17 19 11 14 14 14 14 12 10 11 10
20 19 19 19 17 17 17 16 16 18 17 4 4 3 3 10 5 4 1 3 2 1 2 2 1 4 1 3 3 2 5 4 6 4 4 3 3 4 2 4 7 9 10 3 10 12 11 16 16 15 13 12 11 10
24 21 21 19 19 20 23 21 21 11 6 7 4 6 3 4 4 3 2 1 3 4 1 1 1 2 1 2 2 3 4 3 2 1 4 1 1 6 6 7 8 8 11 13 14 16 15 15 14 14 13 12 10 10
23 26 24 21 22 18 12 12 15 8 3 1 6 7 5 5 4 4 4 2 2 3 2 3 3 1 3 4 4 4 5 2 0 3 2 2 2 6 7 9 10 11 14 16 16 15 16 16 14 15 13 10 11 10
19 20 22 22 19 19 19 17 18 8 2 7 5 6 3 2 3 3 3 2 2 1 2 2 2 3 2 5 2 6 2 2 4 2 3 0 3 6 8 9 13 13 13 15 15 15 15 15 13 10 11 10 10 10
23 21 20 16 19 19 20 15 9 4 4 4 4 6 5 2 2 1 1 1 3 2 3 3 3 2 4 5 3 2 3 4 3 1 3 1 6 10 10 9 12 12 11 12 12 13 13 13 12 11 9 9 10 9
12 18 10 13 13 13 14 10 4 3 4 5 8 4 3 3 5 4 5 3 4 3 2 2 3 4 4 3 4 5 3 4 3 3 2 4 7 9 10 10 11 11 11 11 11 12 11 11 11 11 10 9 8 8
12 5 8 7 16 14 11 5 4 8 6 7 4 5 4 2 4 4 4 4 4 1 3 3 6 5 3 5 4 5 4 4 4 2 2 4 8 10 11 11 11 11 11 10 10 10 10 11 11 10 11 9 9 8
5 5 9 3 5 7 6 8 6 8 9 4 4 6 7 6 5 6 7 7 4 3 4 5 4 8 6 5 4 4 4 5 3 3 4 5 8 8 9 10 10 9 9 9 10 10 10 10 9 7 9 8 9 8
7 8 16 13 6 8 6 8 6 7 6 3 4 3 5 5 8 7 7 8 6 6 5 5 7 5 4 4 4 7 7 6 3 4 6 7 6 7 8 8 8 9 9 10 10 8 7 9 7 6 5 5 4 4
10 22 20 20 10 6 7 5 4 6 4 3 4 8 5 5 4 6 10 9 7 6 8 7 5 3 3 4 5 6 6 7 4 6 8 8 8 10 10 7 8 10 10 12 11 10 9 8 8 7 6 4 3 3
10 10 15 9 6 9 7 3 5 3 4 3 1 2 3 3 10 9 8 8 10 7 6 5 4 5 7 7 8 6 9 9 9 7 5 6 8 9 9 9 10 9 9 8 8 8 9 7 5 5 4 3 2 2
3 9 4 9 8 7 6 7 4 1 4 1 3 3 3 3 3 5 4 9 7 6 5 4 7 6 8 13 11 12 11 11 12 10 13 10 9 9 9 8 9 9 9 8 7 7 6 4 4 4 4 3 3 3
4 7 7 8 10 9 3 4 7 5 5 3 4 5 4 4 3 3 6 6 5 6 5 5 9 11 11 11 13 14 14 13 10 9 9 9 9 9 9 10 8 8 8 8 6 6 5 6 6 4 3 3 3 3
9 9 8 7 8 2 4 6 4 4 5 5 4 4 4 3 2 6 5 3 4 7 8 10 6 5 6 11 10 9 9 7 8 9 8 7 8 9 8 8 8 8 7 6 6 5 5 5 5 5 4 3 3 2
13 10 8 8 5 8 7 6 6 6 4 3 4 3 2 3 5 5 3 2 3 5 5 5 6 7 6 5 6 7 10 7 6 8 8 5 5 5 6 7 7 7 5 5 5 4 4 4 4 3 3 3 4 4
11 6 6 3 3 5 1 4 4 3 3 4 3 3 4 5 6 4 3 1 2 3 3 3 3 4 6 6 5 6 6 4 6 9 8 8 7 5 5 5 3 4 4 3 3 3 3 3 3 5 4 5 4 3
8 5 4 3 3 4 5 3 3 6 5 5 3 5 5 6 3 2 2 3 2 2 4 5 5 5 5 5 4 5 5 6 7 7 6 7 7 6 4 3 3 2 2 2 2 2 1 3 3 3 4 3 4 3
3 5 5 6 6 4 5 4 4 4 2 4 4 7 4 3 2 3 2 2 3 5 6 7 7 6 6 5 4 3 4 4 5 4 3 5 6 6 6 5 5 9 5 3 2 2 3 4 3 4 3 4 5 3
4 3 5 7 6 6 6 3 2 3 4 3 4 3 3 3 3 3 4 4 4 5 5 4 3 2 4 4 5 5 5 4 5 6 5 3 4 4 3 3 3 4 3 3 7 8 7 3 2 3 5 4 4 2
4 2 6 4 6 4 3 2 2 2 5 4 5 4 4 3 4 4 4 5 5 5 2 2 2 4 2 3 2 4 4 3 3 4 3 1 4 4 3 3 3 3 3 3 4 5 7 5 6 5 5 4 3 3
2 4 5 4 3 0 3 2 4 5 5 5 4 5 3 3 2 4 5 3 3 3 4 4 4 2 4 3 3 3 3 3 3 2 1 2 3 3 3 3 3 2 2 3 3 3 3 3 3 4 5 7 7 3
4 3 5 4 0 2 2 1 2 4 2 4 1 2 3 5 2 2 3 2 4 4 2 1 2 2 1 2 2 1 3 2 2 2 3 2 3 3 3 3 2 2 3 3 3 2 2 2 3 4 4 7 7 6
4 3 4 4 4 3 3 4 4 3 4 3 1 2 2 4 4 3 1 2 4 3 2 3 3 1 4 4 3 0 2 2 4 4 4 1 2 3 2 2 2 2 3 3 2 1 2 2 2 3 5 6 6 5
Wind_Direction
96 106 116 127 137 147 155 159 164 170 176 180 185 189 189 186 172 173 191 235 270 188 292 329 328 165 186 202 204 175 126 248 64 152 162 200 138 207 102 164 176 157 145 176 85 67 281 184 122 167 208 71 131 145
110 119 126 130 135 142 151 160 167 174 178 183 187 187 184 176 162 164 205 227 164 110 296 320 278 258 233 232 194 212 201 160 180 133 166 135 113 59 137 204 145 207 181 177 172 207 227 268 238 152 153 139 154 136
107 114 119 125 133 143 154 161 170 178 177 184 187 179 171 170 171 172 208 173 72 20 316 302 244 257 199 217 205 180 292 181 135 142 150 182 141 130 152 234 107 236 174 123 104 252 228 280 38 62 88 108 99 91
107 114 121 128 131 141 146 162 172 183 185 181 183 175 169 171 168 181 209 163 149 122 221 263 292 305 250 212 195 201 171 105 102 106 145 154 135 163 209 171 158 197 134 131 75 39 79 7 59 116 96 91 88 74
115 120 126 124 135 144 145 144 136 150 176 178 175 170 168 173 175 163 205 161 121 192 329 301 315 276 256 234 202 186 147 123 151 118 114 180 152 117 75 1 222 195 163 160 211 187 156 152 145 129 113 111 109 112
122 122 127 133 122 114 115 123 137 132 172 174 172 175 177 175 142 139 73 253 129 153 344 310 286 297 345 315 171 183 157 89 128 133 189 14 71 135 131 232 265 190 185 165 173 132 97 111 93 94 112 113 107 108
130 123 119 120 118 113 105 105 114 119 117 122 117 128 126 121 115 177 192 185 138 115 36 287 313 293 304 31 69 72 62 98 109 130 87 178 141 112 118 205 194 110 102 104 115 109 80 132 143 114 112 111 105 98
141 139 134 126 121 117 111 102 100 110 118 118 118 123 132 139 78 329 339 136 130 110 60 293 284 336 10 8 80 334 73 41 29 138 129 72 23 50 145 217 74 110 107 94 32 79 112 116 112 113 117 119 108 105
147 142 138 134 126 120 114 112 111 114 118 124 128 121 107 59 155 239 132 170 46 108 181 189 194 241 47 346 29 73 167 82 167 38 39 107 14 207 219 152 147 156 126 121 99 103 114 116 123 124 122 118 115 114
144 140 135 133 131 129 126 128 126 126 123 122 124 153 168 194 147 134 24 31 274 213 193 217 204 173 78 42 240 102 59 149 132 237 121 84 168 263 297 116 132 127 125 124 109 112 119 120 131 133 129 123 119 117
165 154 149 143 145 148 146 147 145 138 136 202 157 198 108 138 70 40 152 199 204 354 236 262 187 134 85 201 197 148 146 190 150 203 135 137 227 167 170 121 126 138 132 108 109 122 130 136 137 131 120 115 115 119
182 172 164 167 163 165 171 166 169 164 187 162 173 110 85 66 73 118 234 281 222 206 294 195 53 65 334 211 106 355 96 43 85 141 80 153 85 123 132 124 110 109 115 117 127 131 131 125 123 117 117 117 117 119
159 181 189 185 189 180 155 182 173 276 89 197 35 45 22 29 90 222 174 172 159 343 346 28 43 50 351 28 53 64 70 74 68 67 167 82 75 113 111 104 98 112 110 108 108 108 106 107 109 118 118 119 117 112
99 119 143 166 171 162 164 174 191 209 31 53 56 67 48 51 52 16 343 17 6 291 360 59 65 51 324 50 0 72 16 64 80 126 217 120 126 121 117 120 115 107 106 109 110 112 109 107 103 106 111 119 119 117
79 79 77 98 124 136 165 182 168 26 56 70 69 65 47 360 27 339 292 2 324 319 28 39 48 63 23 64 33 84 43 54 70 273 6 70 112 117 119 112 109 108 110 110 113 108 108 114 113 108 108 109 106 104
67 54 45 93 104 125 151 120 57 82 65 72 46 38 359 31 19 20 6 11 1 339 5 39 92 61 58 85 56 14 35 46 17 336 326 99 109 112 110 106 103 104 104 106 109 117 118 117 120 116 110 110 106 113
77 74 334 141 106 80 109 123 80 56 64 46 22 6 359 35 23 15 346 348 309 91 58 42 47 22 28 51 47 20 27 338 317 319 29 105 121 114 109 106 108 113 117 118 115 109 112 111 113 115 123 132 125 116
50 311 348 248 165 61 37 35 66 58 51 36 52 18 45 28 358 14 356 356 29 46 31 44 31 39 36 34 22 1 316 316 350 30 80 90 100 108 114 117 122 121 117 115 116 113 114 121 121 116 116 119 118 132
49 34 29 37 96 91 58 24 42 78 42 19 6 23 38 36 19 0 5 11 30 48 74 51 43 36 35 4 318 326 330 337 6 37 52 50 62 94 98 95 99 100 100 108 111 99 90 84 85 90 89 95 104 105
23 30 20 21 46 78 72 43 57 78 62 78 89 51 44 32 346 13 26 21 32 59 48 50 37 15 11 345 338 341 342 339 5 61 53 39 36 57 56 71 84 93 90 89 84 86 88 75 64 61 61 72 89 97
28 351 13 29 49 61 79 46 64 87 117 91 219 110 97 60 42 32 30 359 44 38 61 45 49 34 22 23 11 10 24 26 33 24 53 59 42 54 57 56 67 69 74 73 77 69 66 70 72 76 71 53 66 93
350 20 51 26 66 55 62 19 93 74 76 153 48 55 52 51 30 31 53 38 55 31 27 27 34 32 32 29 24 23 29 44 46 50 48 48 49 47 45 46 65 67 61 59 68 74 69 62 65 70 63 38 61 64
10 36 44 34 63 51 314 19 55 15 61 353 26 38 23 40 45 38 67 38 45 5 22 55 52 46 44 36 36 36 33 42 47 47 49 55 57 53 53 48 48 63 66 53 54 60 60 58 54 48 33 36 33 26
32 51 47 48 49 65 18 23 21 42 36 31 40 44 30 46 47 59 69 55 7 5 23 27 28 49 42 38 37 28 23 33 55 48 41 58 63 53 52 54 49 45 44 51 52 48 43 37 30 38 26 27 17 2
62 359 63 11 358 57 38 18 6 50 51 19 63 5 10 52 68 64 73 53 11 9 11 23 42 41 53 47 36 32 27 34 50 59 25 44 78 82 72 65 57 47 37 52 40 40 32 23 26 29 25 39 36 11
69 354 54 43 349 81 111 65 52 47 57 43 16 350 44 67 64 58 66 64 357 1 345 14 42 55 56 42 37 24 5 13 68 69 42 38 43 55 59 56 43 44 25 74 96 54 11 357 1 1 349 337 335 354
55 15 358 29 82 81 47 43 57 69 56 36 358 25 55 64 65 77 85 32 64 12 39 41 52 55 50 35 36 22 25 49 68 83 82 62 52 44 65 82 34 298 333 70 93 139 270 294 295 301 290 291 264 248
79 54 69 311 46 19 95 53 54 45 13 330 60 36 88 120 78 35 6 73 93 82 72 62 59 62 62 45 30 30 42 61 84 79 73 72 50 43 29 25 22 21 8 351 306 267 225 250 252 256 258 263 283 276
45 6 63 23 35 36 37 79 77 45 353 61 93 76 78 60 353 351 1 31 52 69 74 73 43 33 56 45 43 34 29 45 77 57 47 345 348 323 357 352 348 349 345 352 338 346 319 304 276 240 264 249 271 290
322 44 85 52 65 56 3 82 96 349 35 80 95 91 67 46 3 358 43 53 65 73 58 66 33 61 54 71 20 23 22 35 80 118 121 309 257 281 323 332 331 324 334 354 337 323 349 11 353 359 360 340 338 322
2 55 66 62 86 161 151 146 92 75 57 46 28 90 132 140 23 23 41 29 65 55 56 37 25 14 76 50 87 76 2 338 9 22 194 261 273 283 287 287 283 304 341 5 4 4 354 353 358 345 343 344 332 326
28 62 116 98 57 332 28 83 99 90 68 76 34 60 43 54 51 339 342 57 48 45 2 87 63 326 125 155 178 181 161 266 315 315 324 324 319 296 298 301 311 337 346 348 7 357 2 349 327 332 324 324 328 333
44 37 46 72 36 14 334 73 66 68 44 66 67 122 113 134 168 222 329 67 138 169 231 248 255 206 151 134 119 18 349 297 298 324 345 309 333 329 327 318 332 333 333 344 339 318 343 346 323 320 323 328 327 326